Regional Weather Roundup
Issued by NWS Boston, MA

Home | Current Version | Previous Version | Text Only | Print | Product List | Glossary On
Versions: 1 2 3 4 5 6 7 8 9 10 11 12 13 14 15 16 17 18 19 20 21 22 23 24 25 26 27 28 29 30 31 32 33 34 35 36 37 38 39 40 41 42 43 44 45 46 47 48 49 50
000
ASUS41 KBOX 311110
RWRBOX

REGIONAL WEATHER ROUNDUP
NATIONAL WEATHER SERVICE TAUNTON MA
600 AM EST SAT JAN 31 2015

NOTE:  "FAIR" INDICATES FEW OR NO CLOUDS BELOW 12,000 FEET WITH NO
SIGNIFICANT WEATHER AND/OR OBSTRUCTIONS TO VISIBILITY.  THE FOLLOWING
OBSERVATION LOCATIONS DO NOT REPORT PRESENT WEATHER...PROVINCETOWN...
SMITHFIELD...BLOCK ISLAND...KEENE...AND OXFORD.

MAZALL-311200-
EASTERN MASSACHUSETTS

CITY           SKY/WX    TMP DP  RH WIND       PRES   REMARKS
BOSTON         LGT SNOW  12   6  77 NW22G37   29.78R VSB 3/4 WCI  -7
BEVERLY        LGT SNOW  10   2  69 NW21G36   29.75R VSB 1   WCI  -9
LAWRENCE       LGT SNOW   9   0  67 NW17G29   29.82R WCI  -9
BEDFORD        LGT SNOW  10   1  67 NW17G25   29.81R WCI  -8
BLUE HILL        N/A      9   4  80 NW25G41   29.71R WCI -12
NORWOOD        LGT SNOW  12   5  73 NW21G32   29.79R VSB 1   WCI  -7
MARSHFIELD     LGT SNOW  14  10  85 NW10G28   29.75R VSB 1   WCI   1
PLYMOUTH       LGT SNOW  13   8  81 NW18G31   29.73R WCI  -4
TAUNTON        LGT SNOW  13   7  77 NW15G29   29.76R WCI  -3
NEW BEDFORD    LGT SNOW  14   7  73 NW16G30   29.75R WCI  -2
$$

MAZALL-311200-
CAPE COD AND THE ISLANDS

CITY           SKY/WX    TMP DP  RH WIND       PRES   REMARKS
FALMOUTH       LGT SNOW  14   9  79 NW16G28   29.71R WCI  -2
HYANNIS        LGT SNOW  15  13  91 NW16G31   29.67R VSB 3/4 WCI  -1
CHATHAM        SNOW      18  14  84 NW15G26   29.67R VSB 1/2 WCI   4
PROVINCETOWN   CLOUDY    19  14  79 NW32G44   29.69R VSB 1/2 WCI   0
NANTUCKET      LGT SNOW  19  12  74 NW26G33   29.69R VSB 1   WCI   1
MARTHAS VNYRD  LGT SNOW  15   8  73 NW28G38   29.72R WCI  -5
$$

MAZALL-311200-
CENTRAL AND WESTERN MASSACHUSETTS

CITY           SKY/WX    TMP DP  RH WIND       PRES   REMARKS
WORCESTER      MIX PCPN N/A N/A N/A NW33G46   29.76S
FITCHBURG      NOT AVBL
ORANGE         CLEAR      6  -6  57 NW13G30   29.93R WCI -10
SPRINGFIELD    CLEAR      7  -6  55 NW18      29.96R WCI -12
WESTFIELD      CLEAR      5  -8  55 NW22G32   29.98R WCI -16
NORTH ADAMS    PTCLDY     0 -10  63 W13       30.06R WCI -18
PITTSFIELD     CLEAR     -3 -10  72 NW12      29.98R WCI -21
$$

RIZALL-311200-
RHODE ISLAND

CITY           SKY/WX    TMP DP  RH WIND       PRES   REMARKS
PROVIDENCE     FLURRIES  14   1  56 NW22G33   29.81R WCI  -4
NEWPORT        FLURRIES  14   4  64 NW24G40   29.77R WCI  -5
BLOCK ISLAND   CLOUDY    14   1  57 NW18G32   29.81R WCI  -3
SMITHFIELD     CLOUDY    12  -2  52 NW21G32   29.76S WCI  -6
WESTERLY       CLOUDY    11  -3  53 NW22G38   29.84R WCI  -8
$$

CTZALL-311200-
CONNECTICUT

CITY           SKY/WX    TMP DP  RH WIND       PRES   REMARKS
BRADLEY INTL   CLEAR      6  -8  52 NW12G20   29.98R WCI  -9
HARTFORD       CLEAR      7  -7  52 N16G25    30.01R WCI -11
BRIDGEPORT     CLEAR     11  -7  44 NW21G38   29.99R WCI  -8
DANBURY        CLEAR      7 -10  46 NW17G28   30.02S WCI -12
GROTON         CLOUDY     9  -3  58 NW25G38   29.87R WCI -12
NEW HAVEN      CLEAR     10  -7  46 NW17G28   29.98R WCI  -8
CHESTER        FAIR       9  -6  52 NW18G30   29.91R WCI -10
MERIDEN        CLEAR      8  -8  48 N12G23    30.00R WCI  -7
WILLIMANTIC    MOCLDY     8  -5  55 NW14G22   29.92R WCI  -8
OXFORD         CLEAR      5 -15  39 NW17G35   29.93S WCI -14
$$

MEZ002-015-021-024-NHZ003-005-008-011-012-014-VTZ005-008-311200-
NORTHERN NEW ENGLAND

CITY           SKY/WX    TMP DP  RH WIND       PRES   REMARKS
PORTLAND ME    CLOUDY    16   6  65 NW21G30   29.72R WCI  -1
BANGOR ME      LGT SNOW  17  14  88 NW18      29.66S VSB 3/4 WCI   1
CONCORD NH     CLOUDY     7  -5  57 NW21G35   29.85R WCI -13
MANCHESTER NH  FLURRIES   7  -4  60 NW18G31   29.83R WCI -12
NASHUA NH      MOCLDY    10  -1  61 NW21G29   29.85R WCI  -9
PORTSMOUTH NH  LGT SNOW  11   2  67 W17G28    29.75R BLWGSNOWWCI  -6
JAFFREY NH     CLOUDY     4  -6  63 NW9       29.84R WCI -10
KEENE NH       MOCLDY     7  -6  56 N17G23    29.94R WCI -12
BURLINGTON VT  PTCLDY    -5 -13  68 NE9       30.17R WCI -22
MT. WASHINGTON SNOW      -2  -2 100 NW53G64     N/A  VSB 1/8 WCI -35
$$

NYZ052-076-311200-
EASTERN NEW YORK

CITY           SKY/WX    TMP DP  RH WIND       PRES   REMARKS
ALBANY         PTCLDY     1 -11  57 NW16      30.15R WCI -19
NEW YORK CITY  CLEAR     15   1  53 NW26G37   30.09R WCI  -4
$$

ANZALL-311200-
MARINE OBSERVATIONS

STATION/POSITION TIME  TEMP    WIND        PRES    VSBY  WAVE
                       AIR SEA DIR/SP/G                  HT/PER
                 (UTC) (F)     (DEG/KT/KT) (MB)    (MI)  (FT/S)
BOSTON BUOY      1050   16 40  310/ 31/ 37 1006.3R         8/ 5
BUZZARDS BAY     1000          320/ 37/ 40 1007.2F
NANTUCKET SOUND  NOT AVBL
MASS BAY-STELLWA 1004   17 41  300/ 27/ 33   N/A     3/4   6/ 6
ISLE OF SHOALS   1100   14     300/ 30/ 35 1005.3R
S OF BLOCK IS    1038      42                N/A          11/ 7
$$

......................KEY.........................
  SKY/WX - SKY CONDITION/PRESENT WEATHER
  TMP    - TEMPERATURE IN FAHRENHEIT
  DWPT   - DEWPOINT IN FAHRENHEIT
  RH     - RELATIVE HUMIDITY IN PERCENT
  WIND   - DIRECTION AND SPEED IN MPH
  PRES   - MEAN SEA LEVEL PRESSURE IN INCHES OF HG
  WCI    - WIND CHILL INDEX
  VSB    - VISIBILITY IN MILES
  HX     - HEAT INDEX
  TC     - TEMPERATURE IN CELSIUS
  VRB    - VARIABLE WIND DIRECTION
  N/A    - NOT AVAILABLE



USA.gov is the U.S. government's official web portal to all federal, state and local government web resources and services.